Regional Weather Roundup
Issued by NWS

Home | Current Version | Previous Version | Graphics & Text | Print | Product List | Glossary On
Versions: 1 2 3 4 5 6 7 8 9 10 11 12 13 14 15 16 17 18 19 20 21 22 23 24 25 26 27 28 29 30 31 32 33 34 35 36 37 38 39 40 41 42 43 44 45 46 47 48 49 50
000
ASUS43 KDMX 222307
RWRIA

WEATHER ROUNDUP FOR IOWA
NATIONAL WEATHER SERVICE DES MOINES IA
500 PM CST SAT NOV 22 2014

NOTE: "FAIR" INDICATES FEW OR NO CLOUDS BELOW 12,000 FEET WITH NO
SIGNIFICANT WEATHER AND/OR OBSTRUCTIONS TO VISIBILITY.

* - THESE STATIONS ARE NOT NWS STATIONS...THUS NOT UNDER NWS
QUALITY CONTROL.  THEY ALSO DO NOT REPORT WEATHER SUCH
AS PRECIPITATION OR FOG.

IAZ001>003-012>014-020>022-031>034-043>046-230000-
   NORTHWEST IOWA

CITY           SKY/WX    TMP DP  RH WIND       PRES   REMARKS
CARROLL *      PTCLDY    45  43  93 S12       29.63F
CHEROKEE *     MOCLDY    41  39  93 S7        29.59F FOG
DENISON *      CLEAR     46  43  87 VRB5      29.60F
LE MARS *      CLEAR     43  39  87 S16       29.56F
ORANGE CITY *  CLEAR     39  36  87 S12       29.55F WCI  32
SHELDON *      CLEAR     39  37  93 S15       29.54F WCI  31
SIOUX CITY     MOCLDY    45  38  76 SE9       29.57F
SPENCER        MOCLDY    39  36  89 S10       29.57F FOG     WCI  32
STORM LAKE *   CLEAR     41  39  93 S14       29.61F FOG
$$

IAZ055>058-069>071-079>083-090>094-230000-
   SOUTHWEST IOWA

CITY           SKY/WX    TMP DP  RH WIND       PRES   REMARKS
ATLANTIC *     CLOUDY    52  52 100 S18       29.66F FOG
AUDUBON *      CLEAR     52  46  82 S15       29.66F
CLARINDA *     CLOUDY    52  52 100 S6        29.72F FOG
COUNCIL BLFS * CLOUDY    54  52  94 S17G25    29.63F
CRESTON *      FOG       52  52 100 S15G22    29.71F VSB 1/4
HARLAN  *      MOCLDY    52  52 100 S20       29.67F
LAMONI         CLOUDY    54  54 100 S16G23    29.75F FOG
RED OAK *      FOG       52  52 100 S12       29.68F VSB 1
SHENANDOAH *   CLOUDY    54  54 100 S10       29.70F FOG
$$

IAZ047>049-059>061-072>074-084-230000-
   CENTRAL IOWA

CITY           SKY/WX    TMP DP  RH WIND       PRES   REMARKS
AMES           CLOUDY    52  47  83 S10       29.69F
ANKENY *       CLOUDY    52  50  93 S13G18    29.71F FOG
CHARITON *     CLOUDY    54  54 100 S13       29.75F FOG
DES MOINES     DRZL/FOG  51  49  92 S10       29.72F VSB 3/4
GRINNELL*      CLOUDY    50  50 100 S12       29.74F FOG
KNOXVILLE *    FOG       54  52  94 S12       29.73F VSB 3/4
MARSHALLTOWN   CLOUDY    52  47  83 S17       29.70F
PELLA *        LGT RAIN  52  50  93 S6        29.76F VSB 3/4
PERRY *        CLOUDY    52  48  87 S15       29.68F
$$

IAZ004>006-015-016-023>025-035-036-230000-
   NORTH CENTRAL IOWA

CITY           SKY/WX    TMP DP  RH WIND       PRES   REMARKS
ALGONA *       CLEAR     39  39 100 S15       29.63F FOG     WCI  31
CLARION *      CLEAR     41  41 100 S10       29.66F
ESTHERVILLE    MOCLDY    37  36  96 S18       29.57F FOG     WCI  27
FORT DODGE *   PTCLDY    45  37  76 S6        29.66F
MASON CITY     CLEAR     36  36 100 S8        29.68F FOG     WCI  30
FOREST CITY *  PTCLDY    36  36 100 SE7       29.65F FOG     WCI  30
IOWA FALLS *     N/A     43  37  81 S7        29.70S
$$

IAZ007>011-017>019-026>030-037>042-050>054-066-230000-
   NORTHEAST IOWA

CITY           SKY/WX    TMP DP  RH WIND       PRES   REMARKS
CEDAR RAPIDS   CLOUDY    50  50 100 S7        29.76S FOG
CHARLES CITY * CLEAR     41  41 100 S8        29.69F
CLINTON *      CLOUDY    52  46  82 S14       29.82F
DECORAH *      CLOUDY    41  41 100 CALM      29.71S FOG
DUBUQUE        FOG       46  46 100 S12       29.76F VSB 1/4
MONTICELLO *   CLOUDY    48  48 100 S8        29.76F FOG
OELWEIN *      CLEAR     46  45  93 S16       29.73S
WATERLOO       CLEAR     47  43  86 S12       29.71F
$$

IAZ064-065-067-068-078-230000-
   EAST CENTRAL IOWA

CITY           SKY/WX    TMP DP  RH WIND       PRES   REMARKS
DAVENPORT      MOCLDY    54  48  80 S16G22    29.81S
IOWA CITY      CLOUDY    53  50  89 S13       29.79F
MT. PLEASANT * CLOUDY    54  50  87 S13       29.81S
MUSCATINE *    CLOUDY    55  50  82 S12       29.81R
QUAD CITIES    CLOUDY    55  49  80 S13       29.80F
$$

IAZ062-063-075>077-085>089-095>099-230000-
   SOUTHEAST IOWA

CITY           SKY/WX    TMP DP  RH WIND       PRES   REMARKS
BURLINGTON     CLOUDY    55  50  83 S14       29.82F
FAIRFIELD *    CLOUDY    55  52  88 S10G16    29.80R
FORT MADISON *   N/A     55  52  88 S8        29.84S
KEOKUK *       CLOUDY    57  50  77 S13G18    29.83S
OSKALOOSA *    CLOUDY    54  52  94 S14       29.77F
CENTERVILLE *  CLOUDY    55  55 100 S9        29.80S
OTTUMWA        CLOUDY    55  51  86 S13       29.78S
WASHINGTON *   CLOUDY    55  55 100 S16       29.79S
$$

ABBREVIATIONS USED IN REMARKS
   TC - TEMPERATURES IN CELSIUS
  WCI - WIND CHILL INDEX
   HX - HEAT INDEX
  VSB - VISIBILITY
$$



USA.gov is the U.S. government's official web portal to all federal, state and local government web resources and services.